Location: Proctor
(47.8934°N, 114.3048°W)
Time: 16:09:50
(UTC+00:00)

Courier 1B Rocket - Pass Details

Date: 21 June 2024
Orbit: 920 x 1201 km, 28.2° (Epoch: 16 July)

Event Time Altitude Azimuth Distance (km) Brightness Sun altitude
Rises 13:52:05 0° 242° (WSW) 3,860 7.5 19.2°
Reaches altitude 10° 13:56:35 10° 216° (SW) 2,969 7.2 20.0°
Maximum altitude 13:59:39 13° 191° (S) 2,785 7.2 20.5°
Drops below altitude 10° 14:02:47 10° 166° (SSE) 3,045 7.7 21.0°
Sets 14:07:32 0° 141° (SE) 4,051 8.6 21.8°
